THOR ABLESTAR DEB, 150

Orbit data source: Space-Track

THOR ABLESTAR DEB, 150 is space debris in LEO originally from a launch on Thu, 29 Jun 1961 UTC launched from the Air Force Eastern Test Range (AFETR). Debris objects in space refer to the collection of defunct objects orbiting the Earth. Examples of debris include non-operational satellites, rocket bodies, and fragments generated from explosions, collisions, or faulty payload assembly.

Loading next visibility...
Identifier
150, 1961-015AL
Orbit
LEO
Country
Flag of USUS
Related business
Manufacturer
Unknown
Mission
Spacecraft
Bus & Motor
Unknown
Mass
Unknown
Launch date (UTC)
1961-06-29 (65 years ago)
Launch vehicle
Unknown
Launch site
Air Force Eastern Test Range (AFETR)
Object type
Payload
Rocket body
Debris
Shape & HBR
Unknown shape, 0.1 m
Radar Cross Section
Medium (>0.1 m² and <1 m²)

Expand to show TLE details & history
Last TLE update: 1 day ago

TLE from 1 day ago
0 THOR ABLESTAR DEB
1 00150U 61015AL  26135.03714819  .00000046  00000-0  11156-3 0  9996
2 00150  66.2484 344.7997 0067358 275.0812  84.2573 13.83842255103919
Epoch: 2026-05-15T00:53Z
TLE epoch observation values (Epoch: 2026-05-15T00:53:29.603Z)
Latitude
-0.00001°
Longitude
98.65213°
Altitude
947.707 km
Speed
7.381 km/s
True Right ascension
22h 59m 11s
True Declination
0° 00' 00"
Sunlit
Object was in daylight at epoch
Visualization orbit readout
Latitude
Unknown
Longitude
Unknown
Altitude
Unknown
Speed
Unknown
Apparent Right ascension
Unknown
Apparent Declination
Unknown
Sunlit
N/A
Visualization observer readout
Local Sidereal Time
17:01:32
Azimuth
Unknown
Elevation
Unknown
Doppler factor
Unknown
Orbital elements
Apogee altitude
998.105 km
Perigee altitude
899.4 km
Semi-major axis
7,326.889 km
Eccentricity
0.00674
Inclination
66.2484°
RAAN
344.7997°
Arg. of periapsis
275.0812°
True anomaly
85.02592°
Mean anomaly
84.2573°
Eccentric anomaly
84.64155°
Mean motion
3.4607 °/min
Orbital period
104.03 mins
BSTAR
0.00011156
Loading maneuver chart data...
Computing Atmospheric mass density...

Documentation

Showing up to 5 results
|